Probability
0 0 0 0 0 0 0 0 0 0 0 0 0 0 0 0 0 0 0 0 0 0 0 0 0 0 0 0 0 0 0 0 0 0 0 0 1 2 2 1 0 0 0 0
0 0 0 0 0 0 0 0 0 0 0 0 0 0 0 0 0 0 0 0 0 0 0 0 0 0 0 0 0 0 0 0 0 0 0 0 1 2 2 1 0 0 0 0
0 0 0 0 0 0 0 0 0 0 0 0 0 0 0 0 0 0 0 0 0 0 0 0 0 0 0 0 0 0 0 0 0 0 0 0 0 1 1 0 0 0 0 0
0 0 0 0 0 0 0 0 0 0 0 0 0 0 0 0 0 0 0 0 0 0 0 0 0 0 0 0 0 0 0 0 0 0 0 0 0 0 0 0 0 0 0 0
0 0 0 0 0 0 0 0 0 0 0 0 0 0 0 0 0 0 0 0 0 0 0 0 0 0 0 0 0 0 0 0 0 0 0 0 0 0 0 0 0 0 0 0
0 0 0 0 0 0 0 0 0 0 0 0 0 0 0 0 0 0 0 0 0 0 0 0 0 0 0 0 0 0 0 0 0 0 0 0 0 0 0 0 0 0 0 0
0 0 0 0 0 0 0 0 0 0 0 0 0 0 0 0 0 0 0 0 0 0 0 0 0 0 0 0 0 0 0 0 0 0 0 0 0 0 0 0 0 0 0 0
0 0 0 0 0 0 0 0 0 0 0 0 0 0 0 0 0 0 0 0 0 0 0 0 0 0 0 0 0 0 0 0 0 0 0 0 0 0 0 0 0 0 0 0
0 0 0 0 0 0 0 0 0 0 0 0 0 0 0 0 0 0 0 0 0 0 0 0 0 0 0 0 0 0 0 0 0 0 0 0 0 0 0 0 0 0 0 0
0 0 0 0 0 0 0 0 0 0 0 0 0 0 0 0 0 0 0 0 0 0 0 0 0 0 0 0 0 0 0 0 0 0 0 0 0 0 0 0 0 0 0 0
0 0 0 0 0 0 0 0 0 0 0 0 0 0 0 0 0 0 0 0 0 0 0 0 0 0 0 0 0 0 0 0 0 0 0 0 0 0 0 0 0 0 0 0
0 0 0 0 0 0 0 0 0 0 0 0 0 0 0 0 0 0 0 0 0 0 0 0 0 0 0 0 0 0 0 0 0 0 0 0 0 0 0 0 0 0 0 0
0 0 0 0 0 0 0 0 0 0 0 0 0 0 0 0 0 0 0 0 0 0 0 0 0 0 0 0 0 0 0 0 0 0 0 0 0 0 0 0 0 0 0 0
0 0 0 0 0 0 0 0 0 0 0 0 0 0 0 0 0 0 0 0 0 0 0 0 0 0 0 0 0 0 0 0 0 0 0 0 0 0 0 0 0 0 0 0
0 0 0 0 0 0 0 0 0 0 0 0 0 0 0 0 0 0 0 0 0 0 0 0 0 0 0 0 0 0 0 0 0 0 0 0 0 0 0 0 0 0 0 0
0 0 0 0 0 0 0 0 0 0 0 0 0 0 0 0 0 0 0 0 0 0 0 0 0 0 0 0 0 0 0 0 0 0 0 0 0 0 0 0 0 0 0 0
0 0 0 0 0 0 0 0 0 0 0 0 0 0 0 0 0 0 0 0 0 0 0 0 0 0 0 0 0 0 0 0 0 0 0 0 0 0 0 0 0 0 0 0
0 0 0 0 0 0 0 0 0 0 0 0 0 0 0 0 0 0 0 0 0 0 0 0 0 0 0 0 0 0 0 0 0 0 0 0 0 0 0 0 0 0 0 0
0 0 0 0 0 0 0 0 0 0 0 0 0 0 0 0 0 0 0 0 0 0 0 0 0 0 0 0 0 0 0 0 0 0 0 0 0 0 0 0 0 0 0 0
0 0 0 0 0 0 0 0 0 0 0 0 0 0 0 0 0 0 0 0 0 0 0 0 0 0 0 0 0 0 0 0 0 0 0 0 0 0 0 0 0 0 0 0
0 0 0 0 0 0 0 0 0 0 0 0 0 0 0 0 0 0 0 0 0 0 0 0 0 0 0 0 0 0 0 0 0 0 0 0 0 0 0 0 0 0 0 0
0 0 0 0 0 0 0 0 0 0 0 0 0 0 0 0 0 0 0 0 0 0 0 0 0 0 0 0 0 0 0 0 0 0 0 0 0 0 0 0 0 0 0 0
0 0 0 0 0 0 0 0 0 0 0 0 0 0 0 0 0 0 0 0 0 0 0 0 0 0 0 0 0 0 0 0 0 0 0 0 0 0 0 0 0 0 0 0
0 0 0 0 0 0 0 0 0 0 0 0 0 0 0 0 0 0 0 0 0 0 0 0 0 0 0 0 0 0 0 0 0 0 0 0 0 0 0 0 0 0 0 0
0 0 0 0 0 0 0 0 0 0 0 0 0 0 0 0 0 0 0 0 0 0 0 0 0 0 0 0 0 0 0 0 0 0 0 0 0 0 0 0 0 0 0 0
0 0 0 0 0 0 0 0 0 0 0 0 0 0 0 0 0 0 0 0 0 0 0 0 0 0 0 0 0 0 0 0 0 0 0 0 0 0 0 0 0 0 0 0
0 0 0 0 0 0 0 0 0 0 0 0 0 0 0 0 0 0 0 0 0 0 0 0 0 0 0 0 0 0 0 0 0 0 0 0 0 0 0 0 0 0 0 0
Wind_Speed
4 3 3 5 6 6 7 8 8 8 8 11 7 5 5 3 3 3 3 3 3 4 4 4 4 4 4 4 4 4 4 4 4 4 4 3 4 4 3 3 3 3 3 3
3 2 3 5 8 8 8 7 9 8 12 9 4 3 4 4 4 4 4 4 4 5 5 5 5 5 4 4 4 4 4 4 4 4 4 3 3 3 3 2 2 2 3 3
3 3 3 7 8 9 7 7 8 11 10 4 4 5 5 5 5 5 5 5 5 5 5 5 5 4 4 5 4 4 4 4 4 4 4 4 3 3 3 3 2 3 3 3
1 3 5 8 2 6 6 7 9 8 6 5 6 5 6 5 5 4 5 5 5 4 5 5 5 4 4 4 3 3 4 4 4 4 4 4 3 2 3 2 3 3 3 3
2 2 8 8 3 4 5 7 6 8 8 5 4 4 4 4 3 4 4 4 4 4 4 4 5 4 3 3 3 3 4 4 4 4 4 3 3 3 2 2 3 3 2 3
3 3 7 7 2 1 2 6 4 5 6 4 0 2 5 3 3 3 3 3 3 3 4 4 4 3 3 3 3 4 4 4 4 4 3 3 3 3 2 2 3 2 2 2
4 5 10 6 2 3 3 7 3 3 5 4 5 6 5 3 3 3 3 3 3 3 3 4 4 3 3 3 4 4 4 4 3 3 3 2 3 2 2 2 2 2 2 2
5 5 10 3 4 6 7 3 2 3 4 4 5 4 4 3 3 3 3 3 3 3 4 4 4 3 3 4 4 4 3 3 3 3 2 2 2 2 2 2 1 1 1 2
9 9 5 4 6 5 2 3 3 3 4 3 4 4 4 3 3 4 4 4 3 3 4 4 3 3 3 4 4 3 3 3 3 3 2 2 1 2 2 1 1 1 1 1
5 8 6 6 5 5 4 4 5 4 4 3 4 4 4 4 3 4 4 4 3 3 4 4 4 3 3 4 3 3 3 3 3 2 2 2 2 2 1 1 1 1 1 2
6 7 6 5 6 6 5 4 4 4 3 4 4 4 4 4 4 4 4 4 3 3 4 5 4 4 3 3 3 2 2 2 2 2 2 2 2 2 2 2 1 2 2 1
8 6 5 7 5 3 3 4 4 4 3 3 3 4 4 4 4 3 3 3 3 3 4 4 3 4 4 3 2 1 2 2 2 2 2 2 2 2 3 2 3 4 4 3
7 4 5 6 4 3 3 4 4 3 4 3 3 3 3 3 3 3 3 3 3 4 4 3 3 4 4 3 2 1 1 2 2 2 2 2 2 2 3 4 4 4 4 4
5 3 4 4 5 4 3 3 2 2 2 2 2 2 2 2 3 3 3 3 3 3 3 3 3 3 3 2 2 2 1 2 2 1 1 1 1 2 2 2 3 3 4 5
6 6 6 4 3 2 1 1 1 2 2 2 2 2 2 2 3 4 3 2 2 2 3 2 2 3 3 2 1 2 2 1 1 1 1 1 1 1 1 2 2 2 3 3
4 4 4 3 4 3 2 2 3 4 3 3 2 3 3 3 3 3 2 1 1 2 3 2 3 3 2 2 1 1 1 2 2 1 1 1 1 1 1 1 2 2 2 3
4 4 4 4 4 4 4 4 4 4 3 3 3 3 2 2 2 2 2 2 2 2 2 2 2 2 2 2 1 1 1 2 3 2 1 1 1 1 1 1 1 2 2 3
7 7 6 6 5 5 4 3 3 3 3 3 2 1 1 1 2 3 3 2 2 3 3 2 2 2 2 2 1 1 1 1 1 1 1 1 1 1 1 1 2 2 2 2
5 5 5 5 4 4 4 4 3 3 2 2 2 2 2 2 2 2 1 1 1 2 3 2 3 2 2 2 2 1 1 1 1 1 1 1 2 1 1 1 1 1 2 2
3 3 3 3 3 3 3 3 2 2 2 2 1 1 1 2 1 1 1 1 2 2 2 2 1 1 2 2 2 1 1 1 1 1 1 1 1 1 1 1 1 1 2 2
3 3 3 3 2 2 3 3 3 2 2 2 2 2 2 2 1 1 0 2 3 2 2 2 1 1 1 1 1 1 1 1 1 1 1 1 1 1 1 2 2 2 2 2
3 3 3 2 2 1 1 2 2 2 2 1 1 1 1 1 1 1 1 2 2 3 2 1 1 1 1 2 1 1 1 1 1 1 1 1 1 2 2 2 2 2 2 2
2 3 3 3 2 1 0 1 2 2 2 2 2 2 2 2 1 1 2 2 1 2 2 1 2 2 2 1 0 0 1 1 1 2 2 2 2 2 2 2 2 2 2 2
2 2 2 2 2 2 1 1 0 1 1 1 1 2 2 1 1 1 2 2 3 3 1 2 2 2 2 1 1 1 1 1 1 2 2 2 2 2 2 2 2 2 2 2
2 2 2 3 2 2 1 1 0 0 0 0 1 1 1 1 1 1 1 1 2 2 2 2 3 2 1 1 1 1 1 2 2 2 2 2 2 2 2 2 2 2 2 2
2 2 2 2 2 2 2 1 1 1 1 0 1 1 1 1 1 1 1 1 1 2 2 1 2 1 1 1 1 2 2 2 2 2 2 2 2 2 2 2 3 2 2 2
1 1 1 1 1 1 2 2 2 2 2 1 1 1 1 1 0 1 1 1 1 1 1 1 1 1 1 1 1 2 2 2 2 2 2 2 2 2 2 2 2 2 1 1
Wind_Direction
246 237 197 223 229 203 200 206 215 243 250 266 267 266 272 273 282 289 296 301 295 302 305 305 307 307 307 310 310 308 306 298 291 293 293 298 303 301 285 268 260 254 257 266
283 248 228 256 246 221 222 224 236 259 270 266 272 275 281 280 275 274 284 287 290 296 302 303 300 301 305 307 307 306 300 295 295 297 300 303 305 302 295 284 272 266 255 252
266 315 345 273 233 202 209 211 200 228 246 278 293 276 264 263 254 256 271 282 286 290 292 294 297 294 292 296 300 301 296 295 298 296 295 294 294 292 283 278 266 258 254 248
256 25 247 246 224 186 208 237 220 237 255 257 257 273 269 248 231 253 272 277 281 288 294 297 301 301 294 297 300 300 298 296 300 300 297 298 296 286 279 272 262 257 259 259
153 241 278 289 247 184 198 265 222 227 258 273 295 317 281 235 225 254 269 271 270 276 284 294 299 298 306 306 303 298 295 297 300 299 297 298 296 288 280 278 276 273 268 255
154 199 247 257 261 182 123 277 244 212 239 249 138 286 268 262 288 286 288 285 281 288 298 299 299 301 307 304 307 300 299 301 303 300 295 290 286 283 283 278 271 274 273 260
185 226 261 257 246 119 174 257 276 228 229 211 214 233 254 274 285 281 286 289 288 290 294 293 300 305 303 302 298 300 306 308 313 313 304 302 302 300 304 295 283 263 266 266
171 209 253 224 143 189 227 273 266 258 246 236 252 265 266 267 278 288 293 293 293 292 295 300 303 300 299 297 299 310 314 319 320 323 321 331 322 316 313 301 298 287 281 294
196 217 240 192 206 230 238 256 263 259 265 252 258 264 268 267 272 281 282 284 289 286 296 302 302 290 286 296 312 319 323 321 319 327 334 342 332 320 314 315 326 324 337 321
250 261 260 251 254 263 244 250 265 255 254 243 250 259 269 274 277 283 285 285 287 292 299 301 300 297 287 298 313 315 316 317 321 331 339 346 332 319 313 312 321 328 327 320
252 273 298 277 251 258 264 264 268 270 256 241 240 256 258 268 275 278 288 294 291 286 288 293 300 304 306 309 311 311 314 321 331 333 328 337 342 333 318 307 310 303 290 289
229 225 217 257 261 253 247 256 255 261 275 265 236 250 263 267 271 273 280 290 296 294 292 293 303 309 312 314 308 307 318 328 330 331 330 337 346 354 358 348 347 336 333 331
231 233 228 255 266 243 237 252 259 246 242 263 272 254 260 270 275 281 284 290 287 285 287 292 305 309 312 314 315 311 302 316 323 331 334 338 342 342 344 357 2 356 352 351
236 232 252 246 248 256 248 258 264 270 259 246 261 274 267 278 285 285 280 281 282 285 291 296 304 307 312 317 320 321 316 315 319 319 321 324 325 327 330 338 344 344 345 348
237 223 231 246 254 259 240 211 238 273 283 288 273 264 267 272 277 284 288 294 300 302 303 309 314 314 320 325 333 333 329 321 325 322 323 323 324 328 332 330 326 327 337 345
246 236 223 223 235 242 228 212 226 251 258 264 269 268 269 269 275 288 298 300 291 297 302 310 310 314 329 343 352 344 341 340 337 334 337 335 335 333 330 328 327 329 332 334
215 230 224 235 242 242 235 230 227 236 246 252 259 266 281 298 306 306 307 305 290 289 298 301 301 315 333 343 347 340 339 339 345 346 343 334 331 330 326 325 319 318 319 335
220 224 215 212 218 229 240 238 230 234 241 251 254 247 247 254 269 284 300 322 341 336 324 308 306 323 338 338 336 340 342 335 332 337 334 336 337 330 325 324 319 316 321 335
223 220 217 216 213 209 217 223 227 232 238 222 218 230 244 258 265 277 293 330 332 316 311 316 325 346 337 332 339 352 347 333 338 343 342 342 339 333 330 321 314 312 317 327
226 213 205 210 208 201 207 213 211 218 221 203 210 231 271 282 278 278 284 286 276 272 281 308 330 337 325 323 339 348 339 331 331 331 333 328 326 328 326 320 315 316 317 317
217 206 196 196 205 209 201 193 188 204 219 201 201 217 240 271 274 258 278 305 303 307 309 323 340 316 310 328 352 3 352 336 324 312 314 317 319 318 318 318 316 309 305 307
204 196 198 190 180 205 218 192 185 192 200 210 216 210 216 264 285 295 272 259 278 308 326 313 305 311 327 347 2 352 336 321 310 305 307 308 307 306 308 308 304 302 299 296
200 195 193 189 183 186 222 190 181 185 200 211 210 212 220 233 235 245 287 289 288 303 316 293 300 318 342 5 358 327 310 304 301 301 302 302 299 298 298 299 296 295 293 294
191 189 184 161 136 135 168 264 246 212 217 238 234 223 209 229 280 261 253 284 305 315 311 302 320 331 351 348 310 295 289 286 287 291 294 295 294 294 293 292 291 290 286 288
175 170 163 155 163 184 191 175 64 51 48 330 298 275 253 226 233 266 284 286 299 321 316 307 318 330 336 294 286 280 278 274 276 284 287 288 289 289 289 288 285 284 285 284
176 184 193 202 197 186 177 170 183 209 196 275 310 306 306 301 255 265 280 286 289 308 310 300 297 304 289 280 278 278 279 285 288 283 277 280 282 282 283 287 290 284 283 283
150 158 152 149 192 184 180 182 187 208 210 205 249 276 277 279 274 277 278 283 295 301 300 299 294 284 279 283 286 284 284 285 284 281 281 283 285 284 287 290 291 294 294 291